NSZ3876 EKBI-LFMN

Flight info

Callsign NSZ3876
Flight time N/A
Altitude 33000
Route ALS6A ALS M852 EKERN DCT KEGAB/N0447F360 DCT NIE/N0442F350 N850 XAROL/N0447F360 DCT BOMBI DCT GIGET DCT ABUKA DCT KRH DCT NATOR/N0378F230 DCT TRA DCT RIPUS DCT GERSA DCT SOSON DCT ODINA DCT ENOBA Z185 ASBOP/N0359F190 Z185 BORDI BORDI8R
Aircraft A320/M-SDE3FGHIRWY/LB1

Departure

Time 2026-05-07 18:14
Airport Billund Airport (EKBI)

Arrival

Time N/A
Airport Nice-Côte d'Azur Airport (LFMN)
Time Latitude Longitude Altitude Speed Heading
2026-05-07 17:55 55.74534 9.14683 216 ft 0 kts 357°
2026-05-07 18:03 55.74515 9.14685 219 ft 4 kts 356°
2026-05-07 18:04 55.74488 9.14688 216 ft 4 kts 356°
2026-05-07 18:04 55.74467 9.14689 216 ft 4 kts
2026-05-07 18:04 55.74447 9.14673 218 ft 4 kts 72°
2026-05-07 18:04 55.74444 9.14632 218 ft 2 kts 86°
2026-05-07 18:05 55.74444 9.14629 218 ft 0 kts 86°
2026-05-07 18:08 55.74445 9.14667 218 ft 7 kts 86°
2026-05-07 18:08 55.74449 9.14789 216 ft 12 kts 86°
2026-05-07 18:09 55.74441 9.14944 216 ft 14 kts 123°
2026-05-07 18:09 55.74348 9.14986 219 ft 15 kts 177°
2026-05-07 18:09 55.74238 9.14996 216 ft 17 kts 173°
2026-05-07 18:09 55.74200 9.15165 216 ft 17 kts 87°
2026-05-07 18:10 55.74208 9.15388 225 ft 19 kts 87°
2026-05-07 18:10 55.74216 9.15630 216 ft 20 kts 87°
2026-05-07 18:10 55.74223 9.15892 221 ft 22 kts 87°
2026-05-07 18:10 55.74232 9.16172 216 ft 23 kts 86°
2026-05-07 18:11 55.74241 9.16469 216 ft 25 kts 87°
2026-05-07 18:11 55.74248 9.16674 216 ft 26 kts 86°
2026-05-07 18:11 55.74261 9.17108 216 ft 27 kts 86°
2026-05-07 18:11 55.74271 9.17450 216 ft 28 kts 87°
2026-05-07 18:12 55.74282 9.17799 220 ft 28 kts 86°
2026-05-07 18:12 55.74252 9.18121 223 ft 25 kts 145°
2026-05-07 18:12 55.74122 9.18101 216 ft 12 kts 243°
2026-05-07 18:12 55.74120 9.18032 221 ft 0 kts 267°
2026-05-07 18:13 55.74112 9.17764 216 ft 61 kts 267°
2026-05-07 18:13 55.74076 9.16547 216 ft 132 kts 266°
2026-05-07 18:13 55.74007 9.14604 335 ft 176 kts 267°
2026-05-07 18:13 55.73952 9.12267 771 ft 203 kts 274°
2026-05-07 18:14 55.74364 9.09773 1257 ft 224 kts 301°
2026-05-07 18:14 55.75403 9.07520 1670 ft 250 kts 313°
2026-05-07 18:14 55.76685 9.05247 2192 ft 269 kts 314°
2026-05-07 18:14 55.77955 9.02890 3300 ft 259 kts 311°
2026-05-07 18:15 55.79123 9.00459 4173 ft 261 kts 302°
2026-05-07 18:15 55.79687 8.97431 4866 ft 263 kts 266°
2026-05-07 18:15 55.79154 8.94382 5581 ft 263 kts 232°
2026-05-07 18:15 55.77722 8.92444 6342 ft 263 kts 197°
2026-05-07 18:16 55.75914 8.92336 7066 ft 265 kts 162°
2026-05-07 18:16 55.74295 8.93915 7784 ft 269 kts 143°
2026-05-07 18:16 55.72839 8.96026 8535 ft 272 kts 139°
2026-05-07 18:16 55.71424 8.98231 9225 ft 277 kts 139°
2026-05-07 18:17 55.69947 9.00476 9914 ft 282 kts 140°
2026-05-07 18:17 55.68392 9.02718 10279 ft 298 kts 141°
2026-05-07 18:17 55.66687 9.05049 10424 ft 321 kts 142°
2026-05-07 18:17 55.64858 9.07442 10813 ft 331 kts 143°
2026-05-07 18:18 55.62971 9.09842 11366 ft 336 kts 144°
2026-05-07 18:18 55.61050 9.12251 11952 ft 340 kts 144°
2026-05-07 18:18 55.59109 9.14678 12553 ft 344 kts 145°
2026-05-07 18:18 55.57145 9.17140 13110 ft 348 kts 144°
2026-05-07 18:19 55.55157 9.19636 13673 ft 353 kts 145°
2026-05-07 18:19 55.53145 9.22162 14188 ft 357 kts 145°
2026-05-07 18:19 55.51106 9.24719 14701 ft 361 kts 145°
2026-05-07 18:19 55.49052 9.27298 15217 ft 364 kts 145°
2026-05-07 18:20 55.46982 9.29892 15740 ft 367 kts 145°
2026-05-07 18:20 55.44889 9.32507 16219 ft 370 kts 145°
2026-05-07 18:20 55.42780 9.35139 16721 ft 373 kts 145°
2026-05-07 18:20 55.40655 9.37794 17226 ft 376 kts 145°
2026-05-07 18:21 55.38513 9.40471 17742 ft 379 kts 145°
2026-05-07 18:21 55.36359 9.43159 18259 ft 382 kts 145°
2026-05-07 18:21 55.34183 9.45869 18718 ft 385 kts 145°
2026-05-07 18:21 55.31988 9.48596 19165 ft 388 kts 145°
2026-05-07 18:22 55.29779 9.51337 19619 ft 390 kts 145°
2026-05-07 18:22 55.28277 9.53196 19926 ft 392 kts 145°
2026-05-07 18:22 55.25308 9.56858 20517 ft 396 kts 145°
2026-05-07 18:22 55.23050 9.59644 20946 ft 398 kts 145°
2026-05-07 18:23 55.20775 9.62448 21373 ft 401 kts 145°
2026-05-07 18:23 55.18485 9.65261 21794 ft 404 kts 145°
2026-05-07 18:23 55.16179 9.68093 22206 ft 406 kts 145°
2026-05-07 18:23 55.13862 9.70939 22602 ft 409 kts 145°
2026-05-07 18:24 55.11527 9.73798 22992 ft 411 kts 145°
2026-05-07 18:24 55.09178 9.76672 23393 ft 414 kts 145°
2026-05-07 18:24 55.06814 9.79559 23758 ft 417 kts 145°
2026-05-07 18:24 55.04431 9.82469 24089 ft 419 kts 145°
2026-05-07 18:25 55.02040 9.85385 24448 ft 420 kts 145°
2026-05-07 18:25 54.99639 9.88301 24798 ft 422 kts 145°
2026-05-07 18:25 54.97225 9.91225 25151 ft 423 kts 145°
2026-05-07 18:25 54.94761 9.94036 25466 ft 425 kts 151°
2026-05-07 18:26 54.92057 9.96131 25790 ft 427 kts 162°
2026-05-07 18:26 54.89166 9.97326 26105 ft 429 kts 172°
2026-05-07 18:26 54.86187 9.97597 26419 ft 430 kts 183°
2026-05-07 18:26 54.83215 9.96942 26719 ft 432 kts 191°
2026-05-07 18:27 54.80256 9.95955 27019 ft 434 kts 191°
2026-05-07 18:27 54.77281 9.94972 27331 ft 436 kts 190°
2026-05-07 18:27 54.74290 9.94001 27643 ft 438 kts 190°
2026-05-07 18:27 54.72299 9.93394 27851 ft 440 kts 189°
2026-05-07 18:28 54.68246 9.92264 28266 ft 442 kts 188°
2026-05-07 18:28 54.65197 9.91471 28579 ft 444 kts 188°
2026-05-07 18:28 54.62186 9.90699 29006 ft 443 kts 188°
2026-05-07 18:28 54.59141 9.89916 29457 ft 442 kts 187°
2026-05-07 18:29 54.56106 9.89123 29888 ft 441 kts 187°
2026-05-07 18:29 54.53075 9.88319 30303 ft 440 kts 187°
2026-05-07 18:29 54.50050 9.87508 30666 ft 440 kts 187°
2026-05-07 18:29 54.47026 9.86692 31023 ft 439 kts 187°
2026-05-07 18:30 54.44008 9.85876 31381 ft 439 kts 187°
2026-05-07 18:30 54.40989 9.85061 31739 ft 439 kts 187°
2026-05-07 18:30 54.37974 9.84250 32095 ft 439 kts 187°
2026-05-07 18:30 54.34957 9.83448 32444 ft 439 kts 187°
2026-05-07 18:31 54.31945 9.82650 32849 ft 437 kts 187°